Location: Godiavel Galaoual
(15.2485°N, 12.6604°W)
Time: 02:04:25
(UTC+00:00)

Explorer 7 - Pass Details

Date: 16 June 2021
Orbit: 484 x 676 km, 50.3° (Epoch: 29 July)

Event Time Altitude Azimuth Distance (km) Brightness Sun altitude
Rises 20:10:33 0° 204° (SSW) 2,954 10.5 -11.2°
Reaches altitude 10° 20:12:57 10° 197° (SSW) 2,065 9.6 -11.8°
Maximum altitude 20:17:28 42° 126° (SE) 954 7.5 -12.7°
Drops below altitude 10° 20:22:04 10° 56° (NE) 2,102 9.5 -13.7°
Sets 20:24:31 0° 49° (NE) 3,013 10.4 -14.2°
